Theta_e
300 301 301 301 301 301 300 300 300 299 300 300 301 300 300 299 299 299 301 304 302 302 302 302 303 304 305 305 305 306 308 308 305 305 306 306 307 308 308 307 307 307 306 307 306
300 300 301 301 301 301 301 300 300 299 299 299 300 300 299 299 303 299 299 301 302 302 302 303 304 305 306 305 306 306 308 305 305 306 307 306 307 306 306 306 305 303 303 304 305
300 300 301 301 301 301 301 300 300 299 299 299 299 300 298 299 303 298 299 301 302 302 302 303 304 305 306 305 305 305 306 305 305 305 305 306 307 306 305 304 301 302 301 303 307
300 300 300 301 301 301 301 300 300 299 299 299 300 299 298 300 304 298 297 301 302 302 302 304 304 306 306 306 305 306 305 304 305 305 306 308 306 305 305 301 300 301 299 304 308
300 299 300 301 301 301 301 300 300 299 299 299 301 299 299 300 299 297 298 300 301 302 302 303 303 304 306 305 305 306 305 305 305 305 307 306 305 303 302 300 299 300 299 301 302
300 300 300 300 301 301 301 300 300 299 299 299 301 299 300 301 297 298 299 299 300 302 303 302 303 302 304 304 305 304 304 305 305 305 307 307 306 302 300 299 299 299 297 299 299
300 300 300 301 301 301 301 301 300 300 299 299 300 299 300 298 297 299 300 300 301 301 302 302 303 302 302 305 304 304 305 307 306 305 307 305 307 303 300 298 299 298 298 297 297
301 301 301 301 302 301 301 301 300 300 299 299 300 299 300 297 297 297 300 301 301 301 301 300 302 302 303 304 305 306 306 307 306 306 305 305 306 302 299 298 298 297 297 297 296
301 301 301 302 302 301 301 300 300 299 299 299 299 300 300 297 297 297 300 301 301 302 302 301 302 302 303 305 307 307 306 306 307 305 305 305 304 303 300 298 297 296 296 295 294
302 301 301 301 302 301 300 299 300 299 299 299 298 300 298 297 297 297 299 299 300 302 303 303 303 304 303 304 306 304 305 306 307 306 305 305 304 302 299 298 297 296 295 294 293
303 301 301 301 302 302 300 299 301 301 299 299 299 298 297 296 296 297 297 298 301 302 303 302 304 302 302 302 302 304 305 307 306 305 306 307 306 301 299 297 297 296 295 294 292
303 302 301 301 302 301 300 300 300 301 299 297 297 296 295 296 298 297 297 300 302 303 304 304 302 301 302 302 302 305 306 306 306 305 305 307 306 305 300 298 297 295 294 293 292
304 302 301 301 303 301 300 300 299 298 302 298 296 296 295 296 296 296 296 298 300 302 302 301 300 301 302 303 302 304 305 303 303 305 307 307 308 303 301 298 297 295 294 292 292
307 303 301 302 303 300 300 299 298 298 313 301 298 297 295 295 297 295 295 297 299 300 301 300 300 301 301 301 301 304 302 302 304 309 311 306 310 304 300 299 298 295 293 292 291
314 303 301 302 301 300 300 301 300 303 323 299 298 295 295 297 295 296 296 298 299 298 301 299 298 299 300 299 300 302 301 303 306 309 310 308 309 305 300 298 297 295 293 292 291
316 306 300 301 304 304 303 300 302 320 320 299 297 297 297 297 296 297 297 296 296 298 299 298 298 299 299 300 300 301 304 305 307 308 314 306 306 306 299 297 295 294 292 291 290
314 307 303 305 306 309 306 302 312 312 300 300 298 297 297 296 297 297 297 298 300 307 303 300 298 299 298 300 301 301 305 313 314 312 311 306 307 303 299 296 295 294 291 291 290
319 299 301 307 311 310 307 308 316 309 301 296 297 297 298 295 295 297 299 301 298 298 302 302 301 298 298 298 297 300 302 305 308 309 307 306 307 305 299 295 294 293 290 290 290
318 307 306 309 311 308 307 313 316 303 298 298 296 298 298 296 297 298 297 299 297 296 302 301 299 297 297 298 297 299 301 298 300 303 306 306 305 302 298 295 293 293 290 289 289
317 309 306 309 309 305 306 314 302 296 295 296 300 298 300 297 298 299 298 295 297 295 295 297 304 296 298 298 298 298 297 302 304 307 307 306 305 303 296 295 293 292 290 289 288
316 308 306 306 305 305 312 306 296 294 295 296 298 298 298 297 298 297 297 294 295 295 295 295 297 300 299 298 297 298 298 298 299 302 305 306 307 297 294 294 293 291 290 289 288
311 307 304 302 303 299 303 298 295 294 293 294 295 296 298 296 297 297 297 296 295 295 296 295 297 301 297 295 294 296 296 296 301 302 302 301 303 296 295 294 292 290 289 288 288
308 300 300 301 307 302 294 295 295 294 294 294 295 295 294 295 298 295 295 294 295 296 296 295 298 303 301 297 296 297 296 295 295 296 301 300 303 298 296 293 292 290 289 288 288
310 302 298 299 300 300 297 297 296 293 294 294 294 294 294 294 294 294 295 293 294 295 294 294 295 297 298 298 295 296 296 295 294 298 298 299 298 297 294 293 291 290 289 288 287
312 304 303 301 300 299 301 298 298 295 293 293 293 294 296 295 294 294 294 293 293 293 292 293 296 294 294 294 294 295 295 295 293 295 295 297 295 295 293 292 291 290 288 287 287
310 304 300 298 299 299 300 298 298 299 294 294 295 294 294 296 297 296 294 294 295 292 290 290 297 293 294 295 295 295 295 295 295 295 294 295 295 293 291 291 291 290 288 287 287
311 308 308 298 299 301 299 300 300 296 293 293 294 293 293 291 292 292 291 293 294 293 291 292 294 294 299 294 290 297 295 295 295 294 294 295 294 292 291 291 290 289 288 286 286
Wind_Speed
11 13 15 16 15 15 9 6 5 5 5 5 4 5 9 6 11 17 16 17 14 15 16 9 9 6 5 5 5 4 4 6 10 12 15 18 19 22 21 20 21 18 26 30 34
10 12 14 15 14 14 11 6 5 4 5 6 3 5 8 3 1 14 15 11 13 14 11 13 10 8 5 5 4 4 4 10 10 10 14 18 15 19 13 22 23 34 35 32 31
10 11 12 14 13 13 11 7 5 4 4 8 3 5 11 4 1 11 12 9 11 13 9 12 9 5 4 4 8 6 5 8 9 13 16 18 11 15 11 15 27 33 40 38 42
10 11 11 12 12 12 11 7 6 3 3 8 2 5 5 7 3 13 10 7 9 11 10 9 13 5 6 6 6 6 4 8 9 12 17 7 9 17 6 24 31 26 29 30 29
10 11 11 12 12 12 11 7 6 5 3 5 1 3 3 4 8 15 10 5 7 7 11 12 16 9 8 8 8 5 9 9 9 12 2 4 12 16 21 29 29 25 24 24 23
11 11 11 12 13 12 11 8 6 6 3 4 1 3 2 2 13 14 8 4 4 6 10 10 9 11 6 8 4 12 12 11 6 14 3 10 5 18 27 31 26 25 25 23 23
11 11 11 12 13 13 12 9 5 5 2 4 1 5 7 3 13 12 7 7 6 7 9 8 8 10 12 7 6 9 10 4 3 15 8 15 3 17 25 31 28 28 25 25 23
11 11 11 12 13 13 10 8 6 5 2 4 1 3 1 5 13 10 5 4 4 4 7 11 7 7 11 13 7 7 3 8 6 10 8 13 11 16 25 33 31 31 29 29 26
10 10 11 11 12 12 9 6 5 1 2 3 2 2 1 6 13 12 6 3 2 2 5 6 6 4 11 14 6 3 12 11 7 5 4 10 8 12 26 33 31 32 30 33 35
9 9 9 10 11 9 6 2 5 4 2 1 3 2 3 3 12 18 5 5 1 3 0 7 9 7 12 10 6 15 17 12 12 7 7 8 6 17 24 29 25 28 29 33 37
10 10 9 9 8 8 6 5 3 1 2 5 3 1 3 4 6 18 5 6 3 4 5 3 10 14 16 10 10 18 14 15 14 4 6 6 8 14 20 25 27 32 30 34 38
11 10 10 9 7 4 5 4 4 3 1 2 2 3 4 5 4 20 10 1 6 6 8 3 11 14 13 7 13 13 12 13 10 2 7 9 8 7 16 21 24 30 34 38 47
11 10 9 8 6 5 3 3 1 5 3 1 2 3 4 5 5 15 11 5 5 6 6 11 9 12 13 8 16 12 9 15 13 17 8 14 3 9 16 23 29 34 35 40 41
8 9 7 7 3 4 3 4 1 1 2 4 2 3 5 2 2 11 9 2 2 5 3 4 11 10 14 12 15 13 17 15 13 9 5 12 4 12 20 21 28 37 39 42 47
11 7 6 4 2 2 5 5 3 3 5 3 2 1 5 3 3 10 12 4 5 5 4 5 13 12 13 12 13 8 24 12 10 7 10 9 5 9 22 27 30 33 37 38 41
14 11 8 5 3 5 8 9 4 2 6 4 2 1 2 6 4 5 8 7 3 3 5 4 4 4 10 16 4 18 14 9 8 4 3 6 4 11 14 21 25 29 36 37 42
15 11 11 10 8 6 9 6 4 3 1 3 1 2 4 4 3 7 4 11 5 3 5 3 3 3 18 13 6 21 15 2 3 2 4 5 5 3 15 18 16 21 33 36 38
23 17 16 12 10 9 12 3 3 1 0 1 1 4 1 2 2 3 1 3 9 4 3 5 1 11 11 10 10 10 8 4 5 6 9 2 5 4 14 23 24 23 28 34 38
21 18 11 10 11 14 8 2 4 1 1 3 2 4 3 3 1 0 5 2 5 5 3 4 2 2 5 5 12 7 6 3 5 5 5 3 3 6 19 21 31 30 32 36 38
19 15 11 12 12 13 3 3 3 1 1 1 3 1 4 3 3 1 1 2 1 4 2 2 2 3 3 3 7 7 6 1 1 6 6 2 1 7 21 22 24 26 31 35 37
21 7 8 12 11 4 2 4 3 3 1 2 1 2 0 3 2 2 2 3 1 1 3 1 2 3 2 7 8 6 4 5 3 3 4 6 3 7 11 14 18 24 29 33 36
16 3 10 14 3 1 3 3 3 4 2 1 1 1 2 3 3 2 2 2 2 2 1 2 2 1 4 2 2 3 5 5 4 4 1 3 3 5 5 15 21 23 27 30 33
17 6 13 16 3 3 2 3 3 5 5 5 3 1 0 3 1 4 4 4 3 1 1 1 1 2 3 2 3 2 3 4 2 4 3 4 3 6 17 20 23 22 26 29 29
12 4 3 9 3 5 6 4 5 3 3 3 4 3 4 2 2 5 5 3 3 2 3 1 1 2 3 3 2 3 3 3 4 4 6 6 13 16 19 18 26 25 26 31 31
10 4 8 5 5 5 3 8 9 7 4 8 3 7 5 4 3 4 5 5 5 2 2 1 2 1 6 4 4 6 7 5 3 7 4 8 10 16 14 14 20 22 25 30 33
12 8 7 3 14 10 7 9 13 5 10 5 4 11 7 3 1 7 7 6 3 4 2 1 1 1 3 1 2 9 10 9 8 11 12 10 13 9 17 19 20 22 24 29 29
13 14 8 8 6 5 6 8 13 13 4 1 9 7 7 5 11 13 7 9 7 6 4 2 1 2 0 2 5 7 7 10 3 7 7 6 5 16 16 18 20 17 22 25 30
Wind_Direction
358 4 8 10 9 6 13 24 23 22 22 26 15 359 358 10 70 18 15 353 15 27 32 9 17 33 50 36 9 326 301 347 348 329 325 334 330 325 318 302 307 319 312 298 300
348 356 3 6 4 3 4 5 18 12 7 6 355 357 357 10 150 4 0 31 36 35 29 25 17 16 45 12 7 343 306 4 337 326 326 325 334 335 334 323 328 315 310 311 306
338 349 357 1 360 358 359 353 358 1 8 1 35 22 17 103 219 354 1 35 37 37 18 16 360 8 28 15 358 3 327 336 318 319 321 310 329 332 303 335 330 319 317 314 307
330 338 349 354 355 355 353 349 338 341 348 0 74 31 22 36 358 335 1 34 38 34 20 15 15 20 359 10 357 298 354 321 308 319 314 353 311 332 289 342 326 323 317 318 342
322 330 340 346 348 348 348 343 337 334 311 357 90 22 69 47 358 342 6 35 39 29 23 14 20 354 12 342 325 269 332 303 304 313 63 308 1 353 356 339 331 331 332 336 345
316 323 332 339 342 343 341 333 335 346 292 355 154 56 34 83 355 350 10 34 60 47 21 21 10 351 305 310 297 327 303 284 293 336 331 291 294 11 349 343 340 338 342 343 344
313 319 327 335 338 338 338 331 317 327 277 352 192 139 66 80 13 359 16 34 87 72 34 12 358 8 339 332 318 300 295 269 312 346 9 322 52 7 351 349 349 349 348 348 342
313 319 325 331 335 333 334 333 320 293 222 345 75 121 59 356 11 9 26 29 82 65 14 9 350 346 358 302 252 292 247 329 16 346 21 328 4 3 359 360 358 354 352 348 347
307 313 319 326 331 331 333 346 359 7 190 352 44 233 61 3 0 9 17 54 9 357 5 0 6 349 356 339 256 191 331 334 325 68 26 28 347 347 6 4 357 356 352 350 348
295 302 311 321 330 330 326 319 2 24 292 208 55 215 33 340 10 0 7 37 10 317 188 5 16 10 11 9 359 318 319 315 325 333 298 316 347 17 11 3 357 356 352 352 348
297 298 307 317 330 328 326 294 325 53 50 89 39 15 12 339 20 358 341 358 318 54 15 18 17 16 355 349 321 305 298 298 336 32 316 299 302 7 16 4 3 2 358 353 347
293 297 308 314 324 335 325 267 270 194 109 86 85 45 14 36 349 360 31 2 34 46 0 241 29 357 334 344 335 319 311 335 309 342 300 302 322 23 17 9 13 6 360 355 352
289 297 303 309 308 335 342 319 248 180 251 144 75 34 359 40 37 356 16 4 12 52 26 51 353 333 340 351 351 344 346 327 301 310 290 305 139 6 23 5 11 12 4 0 357
264 284 294 301 277 339 34 51 134 227 285 136 131 6 351 46 26 9 8 8 60 44 4 45 3 346 346 6 354 318 357 318 293 302 335 31 307 40 5 360 8 8 4 358 354
249 261 273 277 251 79 69 61 94 328 307 78 88 68 43 46 335 10 14 32 48 27 288 57 359 349 354 348 329 285 321 301 285 301 304 6 298 17 4 360 359 359 359 357 351
244 222 224 221 190 128 96 93 62 321 251 130 117 82 169 38 40 346 25 40 39 351 28 50 22 336 342 317 352 324 324 266 257 286 237 343 316 41 12 354 348 352 355 357 351
231 224 216 218 213 171 117 93 66 191 32 135 122 117 92 40 45 13 54 43 29 351 30 189 50 39 2 348 7 354 1 303 228 272 337 336 342 37 11 8 359 353 351 354 355
258 202 203 217 212 166 128 76 152 284 60 30 102 117 134 12 58 16 144 71 50 0 27 345 150 15 360 28 323 354 355 11 309 347 329 329 0 44 13 8 1 2 356 356 358
245 220 223 220 212 174 132 114 200 170 89 162 177 220 156 147 225 221 52 55 32 17 36 335 121 35 20 7 5 346 26 301 291 224 260 5 98 148 4 1 357 358 357 357 357
235 219 219 218 206 173 86 187 134 77 132 76 238 276 202 144 190 136 81 84 114 32 68 76 283 38 348 257 50 41 347 285 233 330 319 10 175 340 347 350 351 351 351 352 355
228 182 208 198 183 164 180 151 126 135 34 221 279 207 65 151 150 120 129 143 176 59 60 110 294 33 240 24 8 7 23 341 273 328 323 317 69 349 347 351 348 347 345 348 351
182 150 193 168 124 69 156 96 81 125 163 224 287 45 193 156 118 131 153 77 133 141 110 77 321 336 57 45 359 14 20 4 318 13 297 278 323 300 329 5 356 347 343 346 348
155 123 175 175 173 177 128 94 162 157 183 183 172 332 301 157 132 136 140 112 135 254 30 75 135 268 179 193 176 333 17 10 275 249 263 319 28 333 358 350 354 349 345 344 347
153 126 149 206 213 145 152 167 162 183 139 132 134 131 155 130 41 153 144 159 142 120 75 134 299 306 340 316 341 286 309 350 321 276 341 286 318 336 342 343 342 348 346 344 347
158 166 173 173 219 164 165 143 158 169 231 185 175 215 166 135 120 173 147 149 188 131 80 41 269 236 288 284 247 268 266 268 238 281 265 346 313 317 336 335 338 341 343 346 349
146 150 150 120 138 134 166 199 177 163 169 205 218 171 165 156 212 183 153 185 177 147 92 53 142 261 269 188 280 278 272 271 251 268 266 276 291 356 333 334 339 343 345 342 347
179 166 149 155 148 150 197 172 187 152 203 67 172 132 157 108 95 101 94 105 120 147 139 192 171 253 223 22 329 263 230 209 212 244 268 263 358 327 327 334 336 336 341 342 340